Year,Month,Day,Hour,Minute,Value (Times are PST for temperature in C)
2007,06,30,00,00,13.20
2007,06,30,00,01,13.20
2007,06,30,00,02,13.10
2007,06,30,00,03,13.10
2007,06,30,00,04,13.10
2007,06,30,00,05,13.10
2007,06,30,00,06,13.00
2007,06,30,00,07,13.00
2007,06,30,00,08,12.90
2007,06,30,00,09,12.90
2007,06,30,00,10,12.90
2007,06,30,00,11,12.90
2007,06,30,00,12,12.80
2007,06,30,00,13,12.80
2007,06,30,00,14,12.70
2007,06,30,00,15,12.70
2007,06,30,00,16,12.70
2007,06,30,00,17,12.70
2007,06,30,00,18,12.60
2007,06,30,00,19,12.60
2007,06,30,00,20,12.60
2007,06,30,00,21,12.50
2007,06,30,00,22,12.50
2007,06,30,00,23,12.60
2007,06,30,00,24,12.60
2007,06,30,00,25,12.70
2007,06,30,00,26,12.70
2007,06,30,00,27,12.70
2007,06,30,00,28,12.80
2007,06,30,00,29,12.80
2007,06,30,00,30,12.90
2007,06,30,00,31,12.90
2007,06,30,00,32,12.90
2007,06,30,00,33,12.90
2007,06,30,00,34,13.00
2007,06,30,00,35,13.00
2007,06,30,00,36,13.00
2007,06,30,00,37,12.90
2007,06,30,00,38,12.90
2007,06,30,00,39,12.80
2007,06,30,00,40,12.70
2007,06,30,00,41,12.50
2007,06,30,00,42,12.40
2007,06,30,00,43,12.20
2007,06,30,00,44,12.10
2007,06,30,00,45,12.00
2007,06,30,00,46,11.90
2007,06,30,00,47,11.80
2007,06,30,00,48,11.70
2007,06,30,00,49,11.70
2007,06,30,00,50,11.60
2007,06,30,00,51,11.60
2007,06,30,00,52,11.50
2007,06,30,00,53,11.50
2007,06,30,00,54,11.50
2007,06,30,00,55,11.40
2007,06,30,00,56,11.40
2007,06,30,00,57,11.30
2007,06,30,00,58,11.30
2007,06,30,00,59,11.20
2007,06,30,01,00,11.20
2007,06,30,01,01,11.20
2007,06,30,01,02,11.10
2007,06,30,01,03,11.10
2007,06,30,01,04,11.10
2007,06,30,01,05,11.00
2007,06,30,01,06,11.10
2007,06,30,01,07,11.10
2007,06,30,01,08,11.00
2007,06,30,01,09,11.00
2007,06,30,01,10,10.90
2007,06,30,01,11,10.90
2007,06,30,01,12,11.00
2007,06,30,01,13,11.10
2007,06,30,01,14,11.20
2007,06,30,01,15,11.30
2007,06,30,01,16,11.30
2007,06,30,01,17,11.20
2007,06,30,01,18,11.20
2007,06,30,01,19,11.10
2007,06,30,01,20,11.10
2007,06,30,01,21,10.90
2007,06,30,01,22,10.90
2007,06,30,01,23,10.80
2007,06,30,01,24,10.70
2007,06,30,01,25,10.70
2007,06,30,01,26,10.60
2007,06,30,01,27,10.50
2007,06,30,01,28,10.50
2007,06,30,01,29,10.40
2007,06,30,01,30,10.40
2007,06,30,01,31,10.40
2007,06,30,01,32,10.40
2007,06,30,01,33,10.30
2007,06,30,01,34,10.30
2007,06,30,01,35,10.30
2007,06,30,01,36,10.20
2007,06,30,01,37,10.20
2007,06,30,01,38,10.20
2007,06,30,01,39,10.20
2007,06,30,01,40,10.10
2007,06,30,01,41,10.10
2007,06,30,01,42,10.10
2007,06,30,01,43,10.10
2007,06,30,01,44,10.10
2007,06,30,01,45,10.10
2007,06,30,01,46,10.10
2007,06,30,01,47,10.10
2007,06,30,01,48,10.10
2007,06,30,01,49,10.10
2007,06,30,01,50,10.10
2007,06,30,01,51,10.10
2007,06,30,01,52,10.10
2007,06,30,01,53,10.10
2007,06,30,01,54,10.10
2007,06,30,01,55,10.10
2007,06,30,01,56,10.10
2007,06,30,01,57,10.10
2007,06,30,01,58,10.20
2007,06,30,01,59,10.10
2007,06,30,02,00,10.20
2007,06,30,02,01,10.30
2007,06,30,02,02,10.40
2007,06,30,02,03,10.40
2007,06,30,02,04,10.40
2007,06,30,02,05,10.40
2007,06,30,02,06,10.40
2007,06,30,02,07,10.30
2007,06,30,02,08,10.30
2007,06,30,02,09,10.20
2007,06,30,02,10,10.10
2007,06,30,02,11,10.10
2007,06,30,02,12,10.00
2007,06,30,02,13,9.90
2007,06,30,02,14,9.90
2007,06,30,02,15,9.80
2007,06,30,02,16,9.80
2007,06,30,02,17,9.70
2007,06,30,02,18,9.70
2007,06,30,02,19,9.60
2007,06,30,02,20,9.60
2007,06,30,02,21,9.60
2007,06,30,02,22,9.50
2007,06,30,02,23,9.60
2007,06,30,02,24,9.60
2007,06,30,02,25,9.60
2007,06,30,02,26,9.60
2007,06,30,02,27,9.60
2007,06,30,02,28,9.60
2007,06,30,02,29,9.60
2007,06,30,02,30,9.60
2007,06,30,02,31,9.60
2007,06,30,02,32,9.50
2007,06,30,02,33,9.50
2007,06,30,02,34,9.40
2007,06,30,02,35,9.40
2007,06,30,02,36,9.40
2007,06,30,02,37,9.40
2007,06,30,02,38,9.30
2007,06,30,02,39,9.30
2007,06,30,02,40,9.30
2007,06,30,02,41,9.30
2007,06,30,02,42,9.30
2007,06,30,02,43,9.30
2007,06,30,02,44,9.30
2007,06,30,02,45,9.30
2007,06,30,02,46,9.30
2007,06,30,02,47,9.30
2007,06,30,02,48,9.30
2007,06,30,02,49,9.30
2007,06,30,02,50,9.30
2007,06,30,02,51,9.30
2007,06,30,02,52,9.30
2007,06,30,02,53,9.30
2007,06,30,02,54,9.20
2007,06,30,02,55,9.20
2007,06,30,02,56,9.20
2007,06,30,02,57,9.20
2007,06,30,02,58,9.20
2007,06,30,02,59,9.10
2007,06,30,03,00,9.10
2007,06,30,03,01,9.10
2007,06,30,03,02,9.10
2007,06,30,03,03,9.20
2007,06,30,03,04,9.20
2007,06,30,03,05,9.20
2007,06,30,03,06,9.20
2007,06,30,03,07,9.20
2007,06,30,03,08,9.20
2007,06,30,03,09,9.20
2007,06,30,03,10,9.20
2007,06,30,03,11,9.20
2007,06,30,03,12,9.20
2007,06,30,03,13,9.20
2007,06,30,03,14,9.20
2007,06,30,03,15,9.20
2007,06,30,03,16,9.20
2007,06,30,03,17,9.10
2007,06,30,03,18,9.10
2007,06,30,03,19,9.10
2007,06,30,03,20,9.10
2007,06,30,03,21,9.10
2007,06,30,03,22,9.10
2007,06,30,03,23,9.10
2007,06,30,03,24,9.10
2007,06,30,03,25,9.10
2007,06,30,03,26,9.10
2007,06,30,03,27,9.10
2007,06,30,03,28,9.10
2007,06,30,03,29,9.10
2007,06,30,03,30,9.00
2007,06,30,03,31,9.00
2007,06,30,03,32,9.00
2007,06,30,03,33,9.00
2007,06,30,03,34,9.00
2007,06,30,03,35,9.00
2007,06,30,03,36,9.00
2007,06,30,03,37,9.00
2007,06,30,03,38,9.00
2007,06,30,03,39,9.00
2007,06,30,03,40,9.00
2007,06,30,03,41,9.00
2007,06,30,03,42,9.00
2007,06,30,03,43,9.00
2007,06,30,03,44,9.00
2007,06,30,03,45,8.90
2007,06,30,03,46,8.90
2007,06,30,03,47,8.90
2007,06,30,03,48,8.90
2007,06,30,03,49,8.80
2007,06,30,03,50,8.80
2007,06,30,03,51,8.80
2007,06,30,03,52,8.80
2007,06,30,03,53,8.80
2007,06,30,03,54,8.80
2007,06,30,03,55,8.80
2007,06,30,03,56,8.80
2007,06,30,03,57,8.80
2007,06,30,03,58,8.80
2007,06,30,03,59,8.80
2007,06,30,04,00,8.80
2007,06,30,04,01,8.80
2007,06,30,04,02,8.80
2007,06,30,04,03,8.80
2007,06,30,04,04,8.80
2007,06,30,04,05,8.80
2007,06,30,04,06,8.80
2007,06,30,04,07,8.80
2007,06,30,04,08,8.80
2007,06,30,04,09,8.90
2007,06,30,04,10,8.90
2007,06,30,04,11,9.00
2007,06,30,04,12,9.00
2007,06,30,04,13,9.00
2007,06,30,04,14,8.90
2007,06,30,04,15,8.90
2007,06,30,04,16,8.90
2007,06,30,04,17,8.90
2007,06,30,04,18,8.90
2007,06,30,04,19,8.80
2007,06,30,04,20,8.80
2007,06,30,04,21,8.80
2007,06,30,04,22,8.80
2007,06,30,04,23,8.80
2007,06,30,04,24,8.80
2007,06,30,04,25,8.80
2007,06,30,04,26,8.80
2007,06,30,04,27,8.80
2007,06,30,04,28,8.80
2007,06,30,04,29,8.80
2007,06,30,04,30,8.70
2007,06,30,04,31,8.70
2007,06,30,04,32,8.70
2007,06,30,04,33,8.60
2007,06,30,04,34,8.60
2007,06,30,04,35,8.60
2007,06,30,04,36,8.60
2007,06,30,04,37,8.60
2007,06,30,04,38,8.60
2007,06,30,04,39,8.60
2007,06,30,04,40,8.60
2007,06,30,04,41,8.70
2007,06,30,04,42,8.70
2007,06,30,04,43,8.60
2007,06,30,04,44,8.60
2007,06,30,04,45,8.60
2007,06,30,04,46,8.60
2007,06,30,04,47,8.60
2007,06,30,04,48,8.60
2007,06,30,04,49,8.60
2007,06,30,04,50,8.60
2007,06,30,04,51,8.60
2007,06,30,04,52,8.70
2007,06,30,04,53,8.70
2007,06,30,04,54,8.80
2007,06,30,04,55,8.80
2007,06,30,04,56,8.80
2007,06,30,04,57,8.80
2007,06,30,04,58,8.80
2007,06,30,04,59,8.80
2007,06,30,05,00,8.80
2007,06,30,05,01,8.80
2007,06,30,05,02,8.90
2007,06,30,05,03,8.90
2007,06,30,05,04,8.90
2007,06,30,05,05,8.90
2007,06,30,05,06,8.90
2007,06,30,05,07,8.90
2007,06,30,05,08,8.90
2007,06,30,05,09,8.90
2007,06,30,05,10,8.90
2007,06,30,05,11,8.80
2007,06,30,05,12,8.80
2007,06,30,05,13,8.80
2007,06,30,05,14,8.90
2007,06,30,05,15,8.90
2007,06,30,05,16,8.90
2007,06,30,05,17,8.90
2007,06,30,05,18,8.90
2007,06,30,05,19,8.90
2007,06,30,05,20,8.90
2007,06,30,05,21,8.90
2007,06,30,05,22,8.90
2007,06,30,05,23,8.80
2007,06,30,05,24,8.80
2007,06,30,05,25,8.80
2007,06,30,05,26,8.80
2007,06,30,05,27,8.80
2007,06,30,05,28,8.80
2007,06,30,05,29,8.80
2007,06,30,05,30,8.80
2007,06,30,05,31,8.80
2007,06,30,05,32,8.80
2007,06,30,05,33,8.80
2007,06,30,05,34,8.80
2007,06,30,05,35,8.70
2007,06,30,05,36,8.70
2007,06,30,05,37,8.70
2007,06,30,05,38,8.70
2007,06,30,05,39,8.70
2007,06,30,05,40,8.80
2007,06,30,05,41,8.80
2007,06,30,05,42,8.80
2007,06,30,05,43,8.80
2007,06,30,05,44,8.80
2007,06,30,05,45,8.80
2007,06,30,05,46,8.90
2007,06,30,05,47,8.90
2007,06,30,05,48,8.90
2007,06,30,05,49,8.90
2007,06,30,05,50,8.90
2007,06,30,05,51,8.90
2007,06,30,05,52,8.90
2007,06,30,05,53,8.90
2007,06,30,05,54,8.90
2007,06,30,05,55,8.90
2007,06,30,05,56,8.90
2007,06,30,05,57,8.90
2007,06,30,05,58,8.90
2007,06,30,05,59,8.90
2007,06,30,06,00,8.90
2007,06,30,06,01,8.90
2007,06,30,06,02,8.90
2007,06,30,06,03,8.90
2007,06,30,06,04,8.80
2007,06,30,06,05,8.80
2007,06,30,06,06,8.80
2007,06,30,06,07,8.80
2007,06,30,06,08,8.80
2007,06,30,06,09,8.80
2007,06,30,06,10,8.80
2007,06,30,06,11,8.80
2007,06,30,06,12,8.80
2007,06,30,06,13,8.90
2007,06,30,06,14,9.00
2007,06,30,06,15,9.10
2007,06,30,06,16,9.20
2007,06,30,06,17,9.30
2007,06,30,06,18,9.40
2007,06,30,06,19,9.50
2007,06,30,06,20,9.50
2007,06,30,06,21,9.60
2007,06,30,06,22,9.60
2007,06,30,06,23,9.60
2007,06,30,06,24,9.70
2007,06,30,06,25,9.70
2007,06,30,06,26,9.80
2007,06,30,06,27,9.80
2007,06,30,06,28,9.80
2007,06,30,06,29,9.80
2007,06,30,06,30,9.80
2007,06,30,06,31,10.00
2007,06,30,06,32,10.10
2007,06,30,06,33,10.10
2007,06,30,06,34,10.10
2007,06,30,06,35,10.10
2007,06,30,06,36,10.00
2007,06,30,06,37,10.00
2007,06,30,06,38,10.00
2007,06,30,06,39,10.00
2007,06,30,06,40,10.00
2007,06,30,06,41,10.00
2007,06,30,06,42,10.00
2007,06,30,06,43,10.00
2007,06,30,06,44,10.00
2007,06,30,06,45,10.00
2007,06,30,06,46,10.10
2007,06,30,06,47,10.10
2007,06,30,06,48,10.20
2007,06,30,06,49,10.30
2007,06,30,06,50,10.30
2007,06,30,06,51,10.40
2007,06,30,06,52,10.40
2007,06,30,06,53,10.40
2007,06,30,06,54,10.40
2007,06,30,06,55,10.50
2007,06,30,06,56,10.50
2007,06,30,06,57,10.60
2007,06,30,06,58,10.60
2007,06,30,06,59,10.60
2007,06,30,07,00,10.60
2007,06,30,07,01,10.70
2007,06,30,07,02,10.70
2007,06,30,07,03,10.70
2007,06,30,07,04,10.80
2007,06,30,07,05,10.80
2007,06,30,07,06,10.80
2007,06,30,07,07,10.90
2007,06,30,07,08,10.90
2007,06,30,07,09,10.90
2007,06,30,07,10,10.90
2007,06,30,07,11,11.00
2007,06,30,07,12,11.00
2007,06,30,07,13,11.10
2007,06,30,07,14,11.10
2007,06,30,07,15,11.20
2007,06,30,07,16,11.20
2007,06,30,07,17,11.20
2007,06,30,07,18,11.20
2007,06,30,07,19,11.30
2007,06,30,07,20,11.30
2007,06,30,07,21,11.30
2007,06,30,07,22,11.40
2007,06,30,07,23,11.40
2007,06,30,07,24,11.50
2007,06,30,07,25,11.50
2007,06,30,07,26,11.50
2007,06,30,07,27,11.60
2007,06,30,07,28,11.60
2007,06,30,07,29,11.60
2007,06,30,07,30,11.70
2007,06,30,07,31,11.70
2007,06,30,07,32,11.70
2007,06,30,07,33,11.70
2007,06,30,07,34,11.80
2007,06,30,07,35,11.80
2007,06,30,07,36,11.80
2007,06,30,07,37,11.80
2007,06,30,07,38,11.90
2007,06,30,07,39,11.90
2007,06,30,07,40,11.90
2007,06,30,07,41,11.90
2007,06,30,07,42,12.00
2007,06,30,07,43,12.00
2007,06,30,07,44,12.10
2007,06,30,07,45,12.10
2007,06,30,07,46,12.10
2007,06,30,07,47,12.10
2007,06,30,07,48,12.10
2007,06,30,07,49,12.20
2007,06,30,07,50,12.20
2007,06,30,07,51,12.30
2007,06,30,07,52,12.30
2007,06,30,07,53,12.40
2007,06,30,07,54,12.40
2007,06,30,07,55,12.50
2007,06,30,07,56,12.60
2007,06,30,07,57,12.60
2007,06,30,07,58,12.70
2007,06,30,07,59,12.70
2007,06,30,08,00,12.80
2007,06,30,08,01,12.80
2007,06,30,08,02,12.90
2007,06,30,08,03,13.00
2007,06,30,08,04,13.00
2007,06,30,08,05,13.10
2007,06,30,08,06,13.20
2007,06,30,08,07,13.20
2007,06,30,08,08,13.30
2007,06,30,08,09,13.30
2007,06,30,08,10,13.30
2007,06,30,08,11,13.40
2007,06,30,08,12,13.40
2007,06,30,08,13,13.50
2007,06,30,08,14,13.50
2007,06,30,08,15,13.60
2007,06,30,08,16,13.60
2007,06,30,08,17,13.70
2007,06,30,08,18,13.70
2007,06,30,08,19,13.70
2007,06,30,08,20,13.70
2007,06,30,08,21,13.70
2007,06,30,08,22,13.80
2007,06,30,08,23,14.10
2007,06,30,08,24,14.10
2007,06,30,08,25,14.20
2007,06,30,08,26,14.30
2007,06,30,08,27,14.40
2007,06,30,08,28,14.50
2007,06,30,08,29,14.50
2007,06,30,08,30,14.60
2007,06,30,08,31,14.60
2007,06,30,08,32,14.70
2007,06,30,08,33,14.90
2007,06,30,08,34,15.00
2007,06,30,08,35,15.00
2007,06,30,08,36,15.20
2007,06,30,08,37,15.20
2007,06,30,08,38,15.10
2007,06,30,08,39,15.10
2007,06,30,08,40,15.00
2007,06,30,08,41,15.00
2007,06,30,08,42,15.20
2007,06,30,08,43,15.20
2007,06,30,08,44,15.20
2007,06,30,08,45,15.20
2007,06,30,08,46,15.30
2007,06,30,08,47,15.30
2007,06,30,08,48,15.30
2007,06,30,08,49,15.30
2007,06,30,08,50,15.30
2007,06,30,08,51,15.30
2007,06,30,08,52,15.30
2007,06,30,08,53,15.30
2007,06,30,08,54,15.30
2007,06,30,08,55,15.30
2007,06,30,08,56,15.20
2007,06,30,08,57,15.20
2007,06,30,08,58,15.00
2007,06,30,08,59,15.00
2007,06,30,09,00,15.00
2007,06,30,09,01,15.00
2007,06,30,09,02,15.00
2007,06,30,09,03,15.00
2007,06,30,09,04,15.00
2007,06,30,09,05,15.00
2007,06,30,09,06,15.00
2007,06,30,09,07,15.10
2007,06,30,09,08,15.00
2007,06,30,09,09,15.00
2007,06,30,09,10,15.00
2007,06,30,09,11,15.00
2007,06,30,09,12,14.90
2007,06,30,09,13,14.90
2007,06,30,09,14,14.70
2007,06,30,09,15,14.70
2007,06,30,09,16,14.60
2007,06,30,09,17,14.50
2007,06,30,09,18,14.40
2007,06,30,09,19,14.50
2007,06,30,09,20,14.50
2007,06,30,09,21,14.40
2007,06,30,09,22,14.50
2007,06,30,09,23,14.50
2007,06,30,09,24,14.50
2007,06,30,09,25,14.50
2007,06,30,09,26,14.40
2007,06,30,09,27,14.30
2007,06,30,09,28,14.30
2007,06,30,09,29,14.30
2007,06,30,09,30,14.30
2007,06,30,09,31,14.30
2007,06,30,09,32,14.30
2007,06,30,09,33,14.30
2007,06,30,09,34,14.40
2007,06,30,09,35,14.50
2007,06,30,09,36,14.60
2007,06,30,09,37,14.60
2007,06,30,09,38,14.50
2007,06,30,09,39,14.50
2007,06,30,09,40,14.60
2007,06,30,09,41,14.70
2007,06,30,09,42,14.70
2007,06,30,09,43,14.70
2007,06,30,09,44,14.80
2007,06,30,09,45,14.70
2007,06,30,09,46,14.70
2007,06,30,09,47,14.80
2007,06,30,09,48,14.80
2007,06,30,09,49,14.90
2007,06,30,09,50,14.80
2007,06,30,09,51,14.70
2007,06,30,09,52,14.70
2007,06,30,09,53,14.70
2007,06,30,09,54,14.70
2007,06,30,09,55,14.60
2007,06,30,09,56,14.50
2007,06,30,09,57,14.50
2007,06,30,09,58,14.50
2007,06,30,09,59,14.40
2007,06,30,10,00,14.40
2007,06,30,10,01,14.40
2007,06,30,10,02,14.30
2007,06,30,10,03,14.30
2007,06,30,10,04,14.30
2007,06,30,10,05,14.30
2007,06,30,10,06,14.40
2007,06,30,10,07,14.40
2007,06,30,10,08,14.40
2007,06,30,10,09,14.40
2007,06,30,10,10,14.40
2007,06,30,10,11,14.50
2007,06,30,10,12,14.50
2007,06,30,10,13,14.60
2007,06,30,10,14,14.70
2007,06,30,10,15,14.80
2007,06,30,10,16,14.80
2007,06,30,10,17,14.90
2007,06,30,10,18,15.00
2007,06,30,10,19,15.00
2007,06,30,10,20,15.00
2007,06,30,10,21,15.00
2007,06,30,10,22,15.00
2007,06,30,10,23,15.00
2007,06,30,10,24,15.00
2007,06,30,10,25,15.00
2007,06,30,10,26,15.00
2007,06,30,10,27,15.00
2007,06,30,10,28,14.90
2007,06,30,10,29,14.80
2007,06,30,10,30,14.70
2007,06,30,10,31,14.70
2007,06,30,10,32,14.70
2007,06,30,10,33,14.70
2007,06,30,10,34,14.70
2007,06,30,10,35,14.70
2007,06,30,10,36,14.80
2007,06,30,10,37,14.80
2007,06,30,10,38,14.80
2007,06,30,10,39,14.70
2007,06,30,10,40,14.80
2007,06,30,10,41,14.80
2007,06,30,10,42,14.80
2007,06,30,10,43,15.00
2007,06,30,10,44,15.00
2007,06,30,10,45,15.00
2007,06,30,10,46,15.00
2007,06,30,10,47,15.00
2007,06,30,10,48,15.00
2007,06,30,10,49,15.00
2007,06,30,10,50,15.00
2007,06,30,10,51,15.00
2007,06,30,10,52,15.00
2007,06,30,10,53,15.00
2007,06,30,10,54,15.00
2007,06,30,10,55,15.00
2007,06,30,10,56,15.10
2007,06,30,10,57,15.20
2007,06,30,10,58,15.30
2007,06,30,10,59,15.40
2007,06,30,11,00,15.50
2007,06,30,11,01,15.70
2007,06,30,11,02,15.90
2007,06,30,11,03,16.10
2007,06,30,11,04,16.30
2007,06,30,11,05,16.30
2007,06,30,11,06,16.20
2007,06,30,11,07,16.10
2007,06,30,11,08,16.00
2007,06,30,11,09,15.90
2007,06,30,11,10,15.80
2007,06,30,11,11,15.80
2007,06,30,11,12,15.80
2007,06,30,11,13,15.80
2007,06,30,11,14,15.70
2007,06,30,11,15,15.60
2007,06,30,11,16,15.50
2007,06,30,11,17,15.40
2007,06,30,11,18,15.30
2007,06,30,11,19,15.20
2007,06,30,11,20,15.00
2007,06,30,11,21,15.00
2007,06,30,11,22,15.00
2007,06,30,11,23,15.00
2007,06,30,11,24,15.00
2007,06,30,11,25,15.00
2007,06,30,11,26,15.10
2007,06,30,11,27,15.20
2007,06,30,11,28,15.30
2007,06,30,11,29,15.30
2007,06,30,11,30,15.30
2007,06,30,11,31,15.30
2007,06,30,11,32,15.30
2007,06,30,11,33,15.20
2007,06,30,11,34,15.30
2007,06,30,11,35,15.30
2007,06,30,11,36,15.30
2007,06,30,11,37,15.30
2007,06,30,11,38,15.20
2007,06,30,11,39,15.10
2007,06,30,11,40,15.10
2007,06,30,11,41,15.00
2007,06,30,11,42,15.00
2007,06,30,11,43,15.00
2007,06,30,11,44,15.00
2007,06,30,11,45,15.00
2007,06,30,11,46,15.00
2007,06,30,11,47,15.00
2007,06,30,11,48,15.00
2007,06,30,11,49,15.00
2007,06,30,11,50,15.00
2007,06,30,11,51,15.10
2007,06,30,11,52,15.20
2007,06,30,11,53,15.30
2007,06,30,11,54,15.40
2007,06,30,11,55,15.40
2007,06,30,11,56,15.50
2007,06,30,11,57,15.50
2007,06,30,11,58,15.50
2007,06,30,11,59,15.40
2007,06,30,12,00,15.40
2007,06,30,12,01,15.30
2007,06,30,12,02,15.20
2007,06,30,12,03,15.20
2007,06,30,12,04,15.00
2007,06,30,12,05,15.00
2007,06,30,12,06,15.00
2007,06,30,12,07,15.00
2007,06,30,12,08,14.90
2007,06,30,12,09,14.80
2007,06,30,12,10,14.70
2007,06,30,12,11,14.70
2007,06,30,12,12,14.70
2007,06,30,12,13,14.70
2007,06,30,12,14,14.60
2007,06,30,12,15,14.60
2007,06,30,12,16,14.60
2007,06,30,12,17,14.50
2007,06,30,12,18,14.50
2007,06,30,12,19,14.40
2007,06,30,12,20,14.40
2007,06,30,12,21,14.40
2007,06,30,12,22,14.40
2007,06,30,12,23,14.40
2007,06,30,12,24,14.40
2007,06,30,12,25,14.40
2007,06,30,12,26,14.40
2007,06,30,12,27,14.50
2007,06,30,12,28,14.40
2007,06,30,12,29,14.50
2007,06,30,12,30,14.50
2007,06,30,12,31,14.50
2007,06,30,12,32,14.50
2007,06,30,12,33,14.50
2007,06,30,12,34,14.60
2007,06,30,12,35,14.60
2007,06,30,12,36,14.60
2007,06,30,12,37,14.60
2007,06,30,12,38,14.60
2007,06,30,12,39,14.60
2007,06,30,12,40,14.70
2007,06,30,12,41,14.70
2007,06,30,12,42,14.70
2007,06,30,12,43,14.70
2007,06,30,12,44,14.70
2007,06,30,12,45,14.70
2007,06,30,12,46,14.80
2007,06,30,12,47,14.80
2007,06,30,12,48,14.80
2007,06,30,12,49,14.80
2007,06,30,12,50,14.80
2007,06,30,12,51,14.80
2007,06,30,12,52,14.90
2007,06,30,12,53,15.00
2007,06,30,12,54,15.00
2007,06,30,12,55,15.00
2007,06,30,12,56,15.00
2007,06,30,12,57,15.00
2007,06,30,12,58,15.00
2007,06,30,12,59,15.00
2007,06,30,13,00,15.00
2007,06,30,13,01,15.00
2007,06,30,13,02,15.10
2007,06,30,13,03,15.20
2007,06,30,13,04,15.10
2007,06,30,13,05,15.10
2007,06,30,13,06,15.00
2007,06,30,13,07,15.00
2007,06,30,13,08,15.00
2007,06,30,13,09,15.00
2007,06,30,13,10,15.00
2007,06,30,13,11,15.00
2007,06,30,13,12,15.00
2007,06,30,13,13,15.00
2007,06,30,13,14,15.00
2007,06,30,13,15,15.00
2007,06,30,13,16,15.00
2007,06,30,13,17,15.00
2007,06,30,13,18,15.00
2007,06,30,13,19,15.00
2007,06,30,13,20,15.00
2007,06,30,13,21,14.90
2007,06,30,13,22,14.90
2007,06,30,13,23,14.90
2007,06,30,13,24,14.90
2007,06,30,13,25,14.90
2007,06,30,13,26,14.90
2007,06,30,13,27,14.90
2007,06,30,13,28,14.90
2007,06,30,13,29,14.80
2007,06,30,13,30,14.80
2007,06,30,13,31,14.80
2007,06,30,13,32,14.80
2007,06,30,13,33,14.80
2007,06,30,13,34,14.80
2007,06,30,13,35,14.80
2007,06,30,13,36,14.70
2007,06,30,13,37,14.70
2007,06,30,13,38,14.60
2007,06,30,13,39,14.50
2007,06,30,13,40,14.40
2007,06,30,13,41,14.30
2007,06,30,13,42,14.20
2007,06,30,13,43,14.10
2007,06,30,13,44,14.10
2007,06,30,13,45,14.00
2007,06,30,13,46,14.00
2007,06,30,13,47,13.90
2007,06,30,13,48,13.90
2007,06,30,13,49,13.90
2007,06,30,13,50,13.90
2007,06,30,13,51,13.90
2007,06,30,13,52,14.00
2007,06,30,13,53,14.00
2007,06,30,13,54,14.10
2007,06,30,13,55,14.10
2007,06,30,13,56,14.20
2007,06,30,13,57,14.30
2007,06,30,13,58,14.30
2007,06,30,13,59,14.40
2007,06,30,14,00,14.50
2007,06,30,14,01,14.50
2007,06,30,14,02,14.60
2007,06,30,14,03,14.60
2007,06,30,14,04,14.70
2007,06,30,14,05,14.70
2007,06,30,14,06,14.70
2007,06,30,14,07,14.70
2007,06,30,14,08,14.80
2007,06,30,14,09,14.80
2007,06,30,14,10,14.90
2007,06,30,14,11,15.00
2007,06,30,14,12,15.00
2007,06,30,14,13,15.00
2007,06,30,14,14,15.00
2007,06,30,14,15,15.00
2007,06,30,14,16,14.90
2007,06,30,14,17,14.90
2007,06,30,14,18,14.90
2007,06,30,14,19,15.00
2007,06,30,14,20,15.00
2007,06,30,14,21,15.00
2007,06,30,14,22,15.00
2007,06,30,14,23,15.00
2007,06,30,14,24,15.00
2007,06,30,14,25,15.00
2007,06,30,14,26,15.00
2007,06,30,14,27,14.90
2007,06,30,14,28,14.90
2007,06,30,14,29,14.90
2007,06,30,14,30,14.80
2007,06,30,14,31,14.80
2007,06,30,14,32,14.90
2007,06,30,14,33,15.00
2007,06,30,14,34,15.00
2007,06,30,14,35,15.10
2007,06,30,14,36,15.20
2007,06,30,14,37,15.30
2007,06,30,14,38,15.40
2007,06,30,14,39,15.50
2007,06,30,14,40,15.60
2007,06,30,14,41,15.60
2007,06,30,14,42,15.60
2007,06,30,14,43,15.70
2007,06,30,14,44,15.60
2007,06,30,14,45,15.60
2007,06,30,14,46,15.60
2007,06,30,14,47,15.70
2007,06,30,14,48,15.70
2007,06,30,14,49,15.80
2007,06,30,14,50,15.80
2007,06,30,14,51,15.80
2007,06,30,14,52,15.80
2007,06,30,14,53,15.70
2007,06,30,14,54,15.70
2007,06,30,14,55,15.70
2007,06,30,14,56,15.70
2007,06,30,14,57,15.70
2007,06,30,14,58,15.60
2007,06,30,14,59,15.60
2007,06,30,15,00,15.60
2007,06,30,15,01,15.60
2007,06,30,15,02,15.60
2007,06,30,15,03,15.60
2007,06,30,15,04,15.70
2007,06,30,15,05,15.60
2007,06,30,15,06,15.60
2007,06,30,15,07,15.60
2007,06,30,15,08,15.60
2007,06,30,15,09,15.60
2007,06,30,15,10,15.60
2007,06,30,15,11,15.70
2007,06,30,15,12,15.70
2007,06,30,15,13,15.70
2007,06,30,15,14,15.70
2007,06,30,15,15,15.70
2007,06,30,15,16,15.80
2007,06,30,15,17,15.80
2007,06,30,15,18,15.80
2007,06,30,15,19,15.90
2007,06,30,15,20,15.90
2007,06,30,15,21,15.90
2007,06,30,15,22,15.90
2007,06,30,15,23,16.00
2007,06,30,15,24,16.00
2007,06,30,15,25,16.00
2007,06,30,15,26,16.10
2007,06,30,15,27,16.10
2007,06,30,15,28,16.10
2007,06,30,15,29,16.20
2007,06,30,15,30,16.10
2007,06,30,15,31,16.10
2007,06,30,15,32,16.10
2007,06,30,15,33,16.10
2007,06,30,15,34,16.10
2007,06,30,15,35,16.10
2007,06,30,15,36,16.10
2007,06,30,15,37,16.10
2007,06,30,15,38,16.10
2007,06,30,15,39,16.10
2007,06,30,15,40,16.10
2007,06,30,15,41,16.10
2007,06,30,15,42,16.10
2007,06,30,15,43,16.20
2007,06,30,15,44,16.30
2007,06,30,15,45,16.40
2007,06,30,15,46,16.60
2007,06,30,15,47,16.60
2007,06,30,15,48,16.60
2007,06,30,15,49,16.60
2007,06,30,15,50,16.50
2007,06,30,15,51,16.40
2007,06,30,15,52,16.40
2007,06,30,15,53,16.40
2007,06,30,15,54,16.40
2007,06,30,15,55,16.40
2007,06,30,15,56,16.40
2007,06,30,15,57,16.40
2007,06,30,15,58,16.50
2007,06,30,15,59,16.50
2007,06,30,16,00,16.50
2007,06,30,16,01,16.50
2007,06,30,16,02,16.50
2007,06,30,16,03,16.60
2007,06,30,16,04,16.60
2007,06,30,16,05,16.70
2007,06,30,16,06,16.70
2007,06,30,16,07,16.80
2007,06,30,16,08,16.90
2007,06,30,16,09,16.90
2007,06,30,16,10,16.90
2007,06,30,16,11,16.90
2007,06,30,16,12,17.00
2007,06,30,16,13,17.00
2007,06,30,16,14,17.10
2007,06,30,16,15,17.10
2007,06,30,16,16,17.20
2007,06,30,16,17,17.20
2007,06,30,16,18,17.20
2007,06,30,16,19,17.20
2007,06,30,16,20,17.10
2007,06,30,16,21,17.00
2007,06,30,16,22,17.00
2007,06,30,16,23,17.00
2007,06,30,16,24,17.00
2007,06,30,16,25,16.90
2007,06,30,16,26,16.90
2007,06,30,16,27,16.90
2007,06,30,16,28,16.90
2007,06,30,16,29,16.90
2007,06,30,16,30,16.90
2007,06,30,16,31,16.90
2007,06,30,16,32,16.90
2007,06,30,16,33,16.90
2007,06,30,16,34,16.90
2007,06,30,16,35,16.80
2007,06,30,16,36,16.80
2007,06,30,16,37,16.80
2007,06,30,16,38,16.80
2007,06,30,16,39,16.80
2007,06,30,16,40,16.70
2007,06,30,16,41,16.70
2007,06,30,16,42,16.70
2007,06,30,16,43,16.70
2007,06,30,16,44,16.60
2007,06,30,16,45,16.60
2007,06,30,16,46,16.60
2007,06,30,16,47,16.60
2007,06,30,16,48,16.50
2007,06,30,16,49,16.50
2007,06,30,16,50,16.40
2007,06,30,16,51,16.40
2007,06,30,16,52,16.50
2007,06,30,16,53,16.50
2007,06,30,16,54,16.40
2007,06,30,16,55,16.50
2007,06,30,16,56,16.50
2007,06,30,16,57,16.50
2007,06,30,16,58,16.50
2007,06,30,16,59,16.50
2007,06,30,17,00,16.50
2007,06,30,17,01,16.50
2007,06,30,17,02,16.50
2007,06,30,17,03,16.50
2007,06,30,17,04,16.60
2007,06,30,17,05,16.60
2007,06,30,17,06,16.60
2007,06,30,17,07,16.60
2007,06,30,17,08,16.60
2007,06,30,17,09,16.70
2007,06,30,17,10,16.70
2007,06,30,17,11,16.70
2007,06,30,17,12,16.70
2007,06,30,17,13,16.70
2007,06,30,17,14,16.80
2007,06,30,17,15,16.80
2007,06,30,17,16,16.80
2007,06,30,17,17,16.80
2007,06,30,17,18,16.90
2007,06,30,17,19,16.90
2007,06,30,17,20,16.90
2007,06,30,17,21,16.90
2007,06,30,17,22,16.90
2007,06,30,17,23,16.90
2007,06,30,17,24,16.90
2007,06,30,17,25,16.90
2007,06,30,17,26,17.00
2007,06,30,17,27,17.00
2007,06,30,17,28,17.00
2007,06,30,17,29,17.10
2007,06,30,17,30,17.10